Location: Gleizolles
(44.4833°N, 6.7667°E)
Time: 03:07:54
(UTC+00:00)

Vanguard 1 Rocket - Pass Details

Date: 30 June 2024
Orbit: 650 x 4219 km, 34.3° (Epoch: 15 July)

Event Time Altitude Azimuth Distance (km) Brightness Sun altitude
Rises 23:44:09 0° 239° (WSW) 4,414 - -22.4°
Reaches altitude 10° 23:46:37 10° 233° (SW) 3,757 - -22.4°
Exits shadow 23:48:04 17° 229° (SW) 3,425 9.9 -22.4°
Maximum altitude 23:56:34 51° 161° (SSE) 2,836 9.4 -22.3°
Drops below altitude 10° 00:15:18 10° 94° (E) 6,751 11.9 -21.9°
Sets 00:21:38 0° 90° (E) 8,140 12.4 -21.7°
